Regional Weather Roundup
Issued by NWS Charleston, SC

Current Version | Previous Version | Text Only | Print | Product List | Glossary Off
Versions: 1 2 3 4 5 6 7 8 9 10 11 12 13 14 15 16 17 18 19 20 21 22 23 24 25 26 27 28 29 30 31 32 33 34 35 36 37 38 39 40 41 42 43 44 45 46 47 48 49 50

000
ASUS42 KCHS 221512
RWRCHS

REGIONAL WEATHER ROUNDUP
NATIONAL WEATHER SERVICE CHARLESTON SC
1100 AM EDT THU JUN 22 2017

NOTE: "FAIR" INDICATES FEW OR NO CLOUDS BELOW 12,000 FEET WITH NO
SIGNIFICANT WEATHER AND/OR OBSTRUCTIONS TO VISIBILITY.

NOT ALL STATIONS ARE QUALITY CONTROLLED. USE DATA WITH CAUTION...
ESPECIALLY DEWPOINT OBSERVATIONS.

SCZ027-030-031-034>040-042>050-221600-
...SOUTHEAST SOUTH CAROLINA...

CITY           SKY/WX    TMP DP  RH WIND       PRES   REMARKS
N CHARLESTON   CLOUDY    85  75  72 SW8       30.12R HX  93
WATERFRONT PRK   N/A     83  78  84 SW6       30.10S HX  93
JOHNS ISLAND   FAIR      84  79  84 S6G13     30.12R HX  96
PINOPOLIS        N/A     82  79  89 SW5       30.06R HX  93
MONCKS CORNER  FAIR      82  77  83 W3        30.13R HX  91
SUMMERVILLE    FAIR      84  75  74 CALM      30.13R HX  92
BEAUFORT MCAS  CLOUDY    85  78  80 S5        30.11S HX  96
BEAUFORT ARPT  FAIR      82  75  78 S10       30.11R
HILTON HEAD IS MOSUNNY   84  77  79 S10         N/A  HX  94
WALTERBORO     MOSUNNY   82  77  83 S3        30.13R HX  91
ALLENDALE      PTSUNNY   81  77  89 CALM      30.12R

...SOUTHERN MIDLANDS AND PEE DEE...

CITY           SKY/WX    TMP DP  RH WIND       PRES   REMARKS
GEORGETOWN     FAIR      82  79  89 W6        30.14R HX  93
KINGSTREE      CLOUDY    81  75  83 CALM      30.13R
ORANGEBURG     CLOUDY    82  77  84 VRB3      30.13R HX  90
BARNWELL       PTSUNNY   84  79  84 CALM      30.13R HX  96
AIKEN          DRIZZLE   77  73  88 CALM      30.17S
MANNING        FAIR      82  79  89 SW17G25   30.13R HX  93
COLUMBIA       CLOUDY    82  75  79 CALM      30.13R
SUMTER         CLOUDY    81  74  78 W5        30.12R
FLORENCE       CLOUDY    80  76  87 W6        30.13R
MYRTLE BEACH   NOT AVBL
N MYRTLE BEACH CLOUDY    82  77  84 S6        30.12R HX  90

$$

GAZ063-065-086>088-099>101-113>116-118-119-134>141-150-221600-
...SOUTHEAST GEORGIA...

CITY           SKY/WX    TMP DP  RH WIND       PRES   REMARKS
SAVANNAH ARPT  CLOUDY    86  74  67 W9        30.12R HX  94
HUNTER AAF     PTSUNNY   86  75  68 S5        30.09R HX  95
FORT STEWART   PTSUNNY   84  75  73 SW7       30.09R HX  92
STATESBORO     CLOUDY    83  81  94 CALM      30.12R HX  96
SYLVANIA       CLOUDY    82  79  89 CALM      30.13R HX  93
CLAXTON        FAIR     N/A N/A N/A CALM      30.11S

...CSRA...CENTRAL AND FAR SOUTHEAST GEORGIA...

CITY           SKY/WX    TMP DP  RH WIND       PRES   REMARKS
THOMSON        CLOUDY    80  75  85 CALM      30.17F
AUGUSTA-BUSH   CLOUDY    82  78  88 S3        30.11F FOG     HX  91
AUGUSTA-DANIEL CLOUDY    81  73  76 CALM      30.13S
SWAINSBORO     PTSUNNY   81  77  89 CALM      30.13S
VIDALIA        MOSUNNY   82  75  78 S3        30.12S
EASTMAN        FAIR      83  66  57 CALM      30.13S
HAZLEHURST     FAIR      83  77  81 CALM      30.10S HX  92
ALMA           MOSUNNY   82  74  76 S6        30.11S
WAYCROSS       CLOUDY    86  80  83 SW3       30.10S HX 101
JESUP          PTSUNNY   86  73  66 CALM      30.11S HX  93
BAXLEY         FAIR      82  81  94 SW5       30.11S HX  95
BRUNSWICK      CLOUDY    88  79  74 S7        30.11S HX 102
SAINT SIMONS   CLOUDY    84  77  79 S8        30.10S HX  94

$$

SCZ027-028-034-036>038-045-046-048>050-GAZ119-141-221600-
...LAKE AND SUPPLEMENTAL COASTAL OBSERVATIONS...

STATION/POSITION TIME  TEMP    WIND        PRES    WAVE   SWELL
                       AIR SEA DIR/SP/G            HT/PER HT/PER/DIR
                 (UTC) (F)     (DEG/KT/KT) (MB)    (FT/S) (FT/S/D)
WINYAH BAY       NOT AVBL
LAKE MURRAY      1420   78      CALM  /  2 1019.3
ACE BASIN NERRS  1345   84     160/  1     1020.0
FORT PULASKI     1436   84 83  200/  7/ 11 1019.8R
SAPELO ISLAND    1400   85     190/  8     1019.0

$$

ANZ835-935-AMZ111-154-330-350-352-354-370-450-454-472-221600-
...C-MAN AND BUOY OBSERVATIONS...

STATION/POSITION TIME  TEMP    WIND        PRES    WAVE   SWELL
                       AIR SEA DIR/SP/G            HT/PER HT/PER/DIR
                 (UTC) (F)     (DEG/KT/KT) (MB)    (FT/S) (FT/S/D)
BUOY 41004       1450   81 81  190/  8/ 10 1020.0R   3/ 7   3/140/ 7
BUOY 41008       1450   81 81  190/ 12/ 14 1019.2R   3/ 8   2/120/ 8
FOLLY BEACH CMAN 1400   82     200/  8/ 10 1020.5R
CAPERS NEARSHORE 1408   85 82  210/  8/ 12 1019.7S
FRIPP NEARSHORE  1408   82 82  200/ 10/ 12 1019.4R


STATION/POSITION TIME  TEMP    WIND        PRES    WAVE   SWELL
                       AIR SEA DIR/SP/G            HT/PER HT/PER/DIR
                 (UTC) (F)     (DEG/KT/KT) (MB)    (FT/S) (FT/S/D)
5E ST. MARYS GA  1430      80                N/A     3/ 8
FRYING PAN BUOY  1450   81 81  250/  8/  8 1020.0R   3/ 7   3/140/ 7
BUOY 41025       1450   78 79  250/  8/ 10 1019.1S   2/ 7   2/180/ 7
CAPE LOOKOUT NC  1400   81     270/  7/  9 1019.0F
BUOY 41002       1450   81 82  210/ 12/ 14 1021.4R   4/ 8   3/130/ 8
BUOY 41010       1450   82 82  140/ 10/ 12 1020.4R   5/ 8   5/120/ 8
ST AUGUSTINE FL  1500   78 78  140/  8/  8 1020.2R


$$




USA.gov is the U.S. government's official web portal to all federal, state and local government web resources and services.